Location: Unspecified
(54.1780°N, 0.0000°E)
Time: 02:33:25
(UTC+00:00)

Transit 2A - Pass Details

Date: 17 June 2019
Orbit: 594 x 965 km, 66.7° (Epoch: 16 July)

Event Time Altitude Azimuth Distance (km) Brightness Sun altitude
Rises 08:30:28 0° 315° (NW) 3,577 9.1 40.4°
Reaches altitude 10° 08:33:12 10° 321° (NW) 2,589 8.4 40.8°
Maximum altitude 08:39:02 50° 36° (NE) 1,073 7.5 41.6°
Drops below altitude 10° 08:44:18 10° 112° (ESE) 2,343 9.7 42.3°
Sets 08:46:40 0° 118° (ESE) 3,209 10.0 42.6°
